GSAT0209 (PRN E09)

Last updated on Nov. 21, 2019, 4:16 a.m. UTC

1 41174U 15079A   19323.56547398  .00000081  00000-0  00000+0 0  9992
2 41174  54.9619 167.2846 0003299 336.2049  23.8559  1.70473199 24411
UTC
Height (km)
Latitude
Longitude
Inclination
Orbital Period
UTC large
Height (km)
Speed (km/s)
/
Latitude / Longitude
Inclination (degrees)
Orbital Period (minutes)
Azimuth
Elevation
Range (km)
Doppler Factor
iOS Compass Heading
iOS Angle

Next 30 passes for location: Hong Kong

Rise time Rise Azimuth (degrees) Set time Set Azimuth (degrees) Duration Max altitude (degrees)

No matching passes for this satellites